Weather in Aushkul

Russia / Republic of Bashkortostan     54°41′17″N   59°42′23″E
temp.,
°C
wind,
m/s
gust,
m/s
humid.,
%
clouds,
%
prec.,
mm/h
press.,
hPa
HPBL,
m
2 march, tue
tue223:00−16sw229694 0.1 101720
02:00−18wnw119630 0.0 101720
05:00−19wnw119415 0.0 101620
08:00−19w11940 0.0 101520
11:00−12s12870 0.0 1013173
14:00−9s349167 0.0 1009256
17:00−8s359483 0.0 1007248
20:00−8ssw51087100 0.0 1006365
3 march, wed
wed323:00−11sw2390100 0.0 100533
02:00−12ssw3589100 0.0 1004130
05:00−11ssw4588100 0.0 1003160
08:00−11ssw3589100 0.0 1001117
11:00−4sw3880100 0.0 1001450
14:00−1sw4779100 0.0 1000968
17:00−1sw3685100 0.1 999453
20:00−6wsw2289100 0.1 100025
4 march, thu
thu423:00−8w118799 0.1 100121
02:00−10wsw118884 0.0 100021
05:00−12w128962 0.0 100021
08:00−12wsw238728 0.0 100130
11:00−7wnw6117756 0.0 1002808
14:00−7wnw6107523 0.0 10031360
17:00−7w498160 0.1 1004858
20:00−13sw33850 0.0 100524
5 march, fri
fri523:00−14sw348931 0.0 100556
02:00−12ssw41089100 0.0 1003257
05:00−11ssw4992100 0.0 1001208
08:00−7ssw41288100 0.0 999380
11:00−1wsw61677100 0.0 9991478
14:000wsw7147899 0.0 9991629
17:00−1wsw5128299 0.1 10021187
20:00−5wnw4128871 0.4 1004787
6 march, sat
sat623:00−9w368569 0.4 1008142
02:00−11w119043 0.0 100921
05:00−11sw228765 0.0 101021
08:00−11w1188100 0.0 101121
11:00−6sse228796 0.0 1009231
14:00−4se2495100 0.7 1005313
17:000ssw81494100 1.8 10011196
20:00−1sw6158599 0.0 998801